Location: Hopkins Observatory
(42.6965°N, 73.1843°W)
Time: 06:08:48
(UTC-05:00)

Amateur Radio Satellites - All Passes

Search period start: 03 March 2015 05:38
Search period end: 04 March 2015 05:38
Location: Hopkins Observatory, 42.6965°N, 73.1843°W

Satellite Date Start Highest point End Downlink Frequencies (MHz)
Time Altitude Azimuth
PCSat 03 Mar 05:40:32 05:45:59 78° 243° (WSW) 05:51:24 145.827
STRAND 1 03 Mar 05:45:16 05:50:22 69° 73° (ENE) 05:55:31 437.568
AIST 1 03 Mar 05:57:56 06:00:58 19° 88° (E) 06:04:09
PRISM 03 Mar 06:05:48 06:09:42 38° 262° (W) 06:13:37 437.425
RS-15 03 Mar 06:42:33 06:53:24 49° 42° (NE) 07:04:49 29.354- 29.394
JAS-2 03 Mar 06:49:08 06:52:55 14° 305° (NW) 06:56:25 435.910
Cubesat XI-IV 03 Mar 06:55:44 07:00:56 50° 290° (WNW) 07:06:04 437.490
CUTE-I 03 Mar 07:04:41 07:09:45 42° 291° (WNW) 07:14:44 437.470
CUBESAT XI-V 03 Mar 07:11:45 07:13:26 11° 274° (W) 07:14:49 437.345
AO-7 03 Mar 07:14:40 07:17:36 12° 318° (NW) 07:20:07 29.400- 29.500
GONETS M04 03 Mar 07:23:25 07:30:33 28° 65° (ENE) 07:37:56
BRITE-PL 03 Mar 07:25:37 07:28:26 17° 88° (E) 07:31:18 437.365/2234.400
STRAND 1 03 Mar 07:27:11 07:30:10 15° 272° (W) 07:32:55 437.568
GOMX 1 03 Mar 07:29:21 07:30:28 11° 86° (E) 07:31:49 467.674
AIST 1 03 Mar 07:34:20 07:38:24 37° 284° (WNW) 07:42:29
CUTE 1.7 + AOD 2 03 Mar 07:35:04 07:36:43 12° 88° (E) 07:38:36 437.475
ISS 03 Mar 07:35:39 07:37:27 14° 133° (SE) 07:39:21 145.825
O/OREOS (USA 219) 03 Mar 07:39:31 07:39:40 10° 98° (E) 07:40:07 437.305
SO-50 03 Mar 07:49:33 07:50:52 11° 28° (NNE) 07:52:23 436.795
DOVE 4 03 Mar 08:00:31 08:03:13 17° 90° (E) 08:06:00 437.250
HO-68 03 Mar 08:03:18 08:09:47 36° 96° (E) 08:16:19 435.675
AAUSAT CUBESAT 2 03 Mar 08:15:51 08:19:00 21° 93° (E) 08:22:15 437.432
COMPASS 1 03 Mar 08:18:35 08:22:04 26° 94° (E) 08:25:39 437.405
UNISAT 6 03 Mar 08:29:44 08:32:18 16° 65° (ENE) 08:35:01 437.425
QB50P1 03 Mar 08:43:53 08:45:34 12° 63° (ENE) 08:47:28 145.935-145.965
SEEDS 03 Mar 08:46:15 08:50:28 64° 100° (E) 08:54:41 437.485
QB50P2 03 Mar 08:47:28 08:49:35 14° 64° (ENE) 08:51:51 145.880/145.840
CANX-2 03 Mar 08:50:20 08:54:36 87° 283° (WNW) 08:58:52 2200.000
BUGSAT 1 03 Mar 08:51:56 08:53:10 11° 62° (ENE) 08:54:37 437.445
TIGRISAT 03 Mar 08:53:22 08:57:00 26° 69° (ENE) 09:00:39 435.000
RS-15 03 Mar 08:55:08 09:06:17 59° 245° (WSW) 09:17:50 29.354- 29.394
FUNcube-1 03 Mar 08:58:28 09:00:35 14° 89° (E) 09:02:54 145.935
ZACube-1 03 Mar 08:59:47 09:02:04 15° 90° (E) 09:04:33 437.345
DUCHIFAT 1 03 Mar 09:01:12 09:04:05 18° 66° (ENE) 09:07:06 145.980
BRITE-PL 03 Mar 09:03:01 09:07:24 45° 288° (WNW) 09:11:29 437.365/2234.400
GOMX 1 03 Mar 09:04:55 09:09:17 63° 286° (WNW) 09:13:26 467.674
UKube-1 03 Mar 09:06:27 09:09:03 16° 91° (E) 09:11:50 .
ANTELSAT 03 Mar 09:06:49 09:10:51 37° 71° (ENE) 09:14:52 437.575/2403.000
CUTE 1.7 + AOD 2 03 Mar 09:08:55 09:13:07 60° 286° (WNW) 09:17:18 437.475
ISS 03 Mar 09:10:20 09:13:34 70° 330° (NNW) 09:16:47 145.825
O/OREOS (USA 219) 03 Mar 09:13:55 09:18:29 81° 293° (WNW) 09:23:06 437.305
UWE-3 03 Mar 09:19:10 09:22:48 29° 95° (E) 09:26:29 435.000/436.395/437.385
GONETS M04 03 Mar 09:19:33 09:28:13 68° 267° (W) 09:36:53
DELFI C3 03 Mar 09:19:53 09:23:44 39° 98° (E) 09:27:36 145.870
POLYITAN 1 03 Mar 09:21:07 09:24:51 30° 69° (ENE) 09:28:38 437.675
POPSAT HIP 1 03 Mar 09:21:22 09:25:05 30° 69° (ENE) 09:28:51 437.405
SO-50 03 Mar 09:27:58 09:32:44 46° 50° (NE) 09:37:29 436.795
DOVE 4 03 Mar 09:37:17 09:41:19 40° 289° (WNW) 09:45:13 437.250
CINEMA 3 03 Mar 09:40:50 09:45:01 70° 285° (WNW) 09:49:07 145.822/145.860
NANOSAT C BR1 03 Mar 09:43:49 09:47:58 51° 73° (ENE) 09:52:09 145.865
Oscar 11 03 Mar 09:47:08 09:51:28 80° 285° (WNW) 09:55:48 145.826/435.025
HO-68 03 Mar 09:50:52 09:57:40 46° 294° (WNW) 10:04:25 435.675
AAUSAT CUBESAT 2 03 Mar 09:50:58 09:54:46 33° 289° (WNW) 09:58:32 437.432
COMPASS 1 03 Mar 09:54:10 09:57:47 28° 291° (WNW) 10:01:21 437.405
CUBEBUG 2 03 Mar 09:57:33 10:01:43 83° 286° (WNW) 10:05:53 437.445
UNISAT 6 03 Mar 10:04:28 10:08:47 52° 260° (W) 10:13:01 437.425
DX 1 03 Mar 10:12:23 10:16:47 87° 97° (E) 10:21:09 434.975-435.025
QB50P1 03 Mar 10:16:42 10:20:59 68° 258° (WSW) 10:25:16 145.935-145.965
AISAT 03 Mar 10:18:31 10:22:44 42° 98° (E) 10:26:57 437.250
CUBEBUG 1 03 Mar 10:20:42 10:23:49 19° 91° (E) 10:27:04 437.445
QB50P2 03 Mar 10:20:49 10:25:04 60° 259° (W) 10:29:19 145.880/145.840
50 SAT 03 Mar 10:23:50 10:27:40 46° 99° (E) 10:31:29 437.505
BUGSAT 1 03 Mar 10:23:51 10:28:07 76° 258° (WSW) 10:32:25 437.445
SEEDS 03 Mar 10:23:53 10:25:50 13° 296° (WNW) 10:27:35 437.485
VELOX 1 03 Mar 10:27:40 10:32:00 51° 99° (E) 10:36:20 145.980
TIGRISAT 03 Mar 10:29:51 10:33:44 29° 265° (W) 10:37:29 435.000
HUMSAT D 03 Mar 10:33:02 10:37:10 87° 104° (ESE) 10:41:18 437.325/437.525
FUNcube-1 03 Mar 10:33:17 10:37:18 49° 287° (WNW) 10:41:19 145.935
ZACube-1 03 Mar 10:34:47 10:38:47 46° 287° (WNW) 10:42:46 437.345
DUCHIFAT 1 03 Mar 10:35:35 10:39:40 42° 262° (W) 10:43:45 145.980
UKube-1 03 Mar 10:41:21 10:45:33 47° 289° (WNW) 10:49:42 .
ANTELSAT 03 Mar 10:44:29 10:47:49 20° 267° (W) 10:51:01 437.575/2403.000
ESTCUBE 1 03 Mar 10:45:33 10:49:50 39° 97° (E) 10:54:07 437.505/2401.250
DANDE 03 Mar 10:45:37 10:48:18 62° 79° (E) 10:50:53 436.750
ISS 03 Mar 10:47:55 10:50:25 20° 347° (NNW) 10:52:54 145.825
DELFI C3 03 Mar 10:55:51 10:58:41 18° 293° (WNW) 11:01:24 145.870
UWE-3 03 Mar 10:55:55 10:59:16 23° 292° (WNW) 11:02:33 435.000/436.395/437.385
POLYITAN 1 03 Mar 10:57:14 11:00:49 25° 266° (W) 11:04:20 437.675
POPSAT HIP 1 03 Mar 10:57:24 11:01:00 25° 266° (W) 11:04:32 437.405
O/OREOS (USA 219) 03 Mar 10:57:25 10:58:48 11° 314° (NW) 10:59:58 437.305
SO-50 03 Mar 11:09:01 11:13:04 25° 247° (WSW) 11:17:01 436.795
CUSAT 1 03 Mar 11:11:53 11:14:10 26° 265° (W) 11:16:28 437.405
RS-15 03 Mar 11:13:09 11:16:44 11° 263° (W) 11:19:05 29.354- 29.394
GONETS M04 03 Mar 11:20:16 11:23:34 12° 285° (WNW) 11:26:13
NANOSAT C BR1 03 Mar 11:21:45 11:24:12 14° 270° (W) 11:26:30 145.865
Oscar 19 03 Mar 11:27:26 11:31:24 24° 65° (ENE) 11:35:28 437.125/150
DX 1 03 Mar 11:51:44 11:52:26 10° 300° (WNW) 11:52:54 434.975-435.025
AISAT 03 Mar 11:55:49 11:59:07 20° 294° (WNW) 12:02:15 437.250
CUBEBUG 1 03 Mar 11:56:16 12:00:25 40° 289° (WNW) 12:04:30 437.445
50 SAT 03 Mar 12:00:03 12:02:21 15° 294° (WNW) 12:04:30 437.505
VELOX 1 03 Mar 12:05:19 12:08:14 17° 296° (WNW) 12:11:00 145.980
ESTCUBE 1 03 Mar 12:22:58 12:26:31 22° 294° (WNW) 12:29:57 437.505/2401.250
SWISSCUBE 03 Mar 12:24:33 12:27:36 17° 90° (E) 12:30:49 437.505
ISS 03 Mar 12:25:23 12:27:41 18° 7° (N) 12:29:59 145.825
SPROUT 03 Mar 12:25:31 12:29:49 73° 285° (WNW) 12:34:05 437.525
TISAT 1 03 Mar 12:26:58 12:31:13 78° 285° (WNW) 12:35:25 437.305
BEESAT 03 Mar 12:32:50 12:36:10 19° 91° (E) 12:39:38 436.000
AO-7 03 Mar 12:38:34 12:42:22 14° 45° (NE) 12:46:34 29.400- 29.500
Gurwin Techsat 1B 03 Mar 12:42:23 12:46:54 30° 67° (ENE) 12:51:33 435.225
ITUPSAT 1 03 Mar 12:59:55 13:04:18 34° 96° (E) 13:08:43 437.325
ITAMSAT 1 03 Mar 13:05:09 13:10:17 63° 73° (ENE) 13:15:30 435.822/435.867
Oscar 19 03 Mar 13:05:34 13:10:30 45° 261° (W) 13:15:26 437.125/150
HORYU 2 03 Mar 13:35:13 13:38:38 23° 67° (ENE) 13:42:09 437.375
JAS-2 03 Mar 13:35:36 13:36:39 11° 52° (NE) 13:38:05 435.910
SWISSCUBE 03 Mar 14:01:09 14:05:52 54° 288° (WNW) 14:10:32 437.505
ISS 03 Mar 14:01:34 14:04:42 44° 27° (NNE) 14:07:49 145.825
KKS-1 03 Mar 14:08:27 14:12:29 34° 97° (E) 14:16:32 437.445
BEESAT 03 Mar 14:09:42 14:14:20 48° 288° (WNW) 14:18:55 436.000
STARS 03 Mar 14:13:19 14:16:53 25° 94° (E) 14:20:32 437.465
YUBILEINY 03 Mar 14:19:02 14:24:44 21° 80° (E) 14:30:52 435.215
Gurwin Techsat 1B 03 Mar 14:21:55 14:26:49 37° 264° (W) 14:31:42 435.225
AO-7 03 Mar 14:25:31 14:33:36 58° 66° (ENE) 14:41:45 29.400- 29.500
ITUPSAT 1 03 Mar 14:38:01 14:42:07 27° 293° (WNW) 14:46:07 437.325
ITAMSAT 1 03 Mar 14:46:57 14:50:20 17° 271° (W) 14:53:30 435.822/435.867
HORYU 2 03 Mar 15:11:03 15:15:08 35° 263° (W) 15:19:13 437.375
JAS-2 03 Mar 15:15:00 15:20:27 64° 72° (ENE) 15:26:37 435.910
MOZHAYETS 4 03 Mar 15:27:16 15:29:08 13° 87° (E) 15:31:16
ISS 03 Mar 15:38:16 15:41:00 24° 224° (SW) 15:43:42 145.825
KKS-1 03 Mar 15:45:24 15:49:01 24° 293° (WNW) 15:52:30 437.445
STARS 03 Mar 15:49:31 15:53:24 31° 291° (WNW) 15:57:15 437.465
BEESAT 3 03 Mar 16:00:52 16:03:56 21° 113° (ESE) 16:07:08 437.485
YUBILEINY 03 Mar 16:11:49 16:20:34 84° 279° (W) 16:29:26 435.215
M-CUBED/EXP-1 PRIME 03 Mar 16:13:19 16:17:25 43° 104° (ESE) 16:21:48 437.505
AUBIESAT-1 03 Mar 16:14:35 16:18:38 39° 104° (ESE) 16:22:57 437.475
AO-7 03 Mar 16:19:27 16:26:51 33° 265° (W) 16:34:06 29.400- 29.500
BEESAT 2 03 Mar 16:26:40 16:30:22 34° 116° (ESE) 16:34:11 435.950
AIST 2 03 Mar 16:30:39 16:32:58 15° 111° (ESE) 16:35:29 435.215
Cubesat XI-IV 03 Mar 16:38:56 16:43:52 39° 69° (ENE) 16:48:53 437.490
CUTE-I 03 Mar 16:47:28 16:52:33 46° 70° (ENE) 16:57:42 437.470
VERMONT LUNAR 03 Mar 16:51:59 16:54:52 25° 157° (SSE) 16:57:48 437.305
MOZHAYETS 4 03 Mar 17:02:18 17:06:55 68° 286° (WNW) 17:11:32
JAS-2 03 Mar 17:02:34 17:06:24 18° 274° (W) 17:10:15 435.910
PHONESAT 2.4 03 Mar 17:02:51 17:05:20 18° 152° (SSE) 17:07:52 2401.200-2431.200
CUBESAT XI-V 03 Mar 17:27:46 17:30:58 18° 90° (E) 17:34:17 437.345
BEESAT 3 03 Mar 17:37:57 17:41:50 39° 310° (NW) 17:45:45 437.485
AIST 1 03 Mar 17:40:25 17:44:46 56° 79° (E) 17:49:06
O/OREOS (USA 219) 03 Mar 17:44:29 17:48:15 25° 56° (NE) 17:52:03 437.305
PRISM 03 Mar 17:47:52 17:51:27 27° 95° (E) 17:55:05 437.425
M-CUBED/EXP-1 PRIME 03 Mar 17:48:55 17:52:09 21° 297° (WNW) 17:55:26 437.505
AUBIESAT-1 03 Mar 17:49:58 17:53:19 22° 297° (WNW) 17:56:46 437.475
STRAND 1 03 Mar 17:55:53 17:59:45 22° 92° (E) 18:03:45 437.568
BEESAT 2 03 Mar 18:05:03 18:08:37 27° 314° (NW) 18:12:11 435.950
AIST 2 03 Mar 18:06:57 18:11:10 59° 306° (NW) 18:15:26 435.215
YUBILEINY 03 Mar 18:13:09 18:19:04 19° 302° (WNW) 18:24:37 435.215
Cubesat XI-IV 03 Mar 18:19:29 18:24:06 28° 266° (W) 18:28:40 437.490
CUTE-I 03 Mar 18:28:33 18:32:54 24° 268° (W) 18:37:09 437.470
VERMONT LUNAR 03 Mar 18:29:02 18:32:28 56° 173° (S) 18:35:54 437.305
CUTE 1.7 + AOD 2 03 Mar 18:30:19 18:31:11 11° 62° (ENE) 18:32:17 437.475
HO-68 03 Mar 18:33:12 18:39:09 31° 61° (ENE) 18:45:15 435.675
BRITE-PL 03 Mar 18:35:47 18:40:24 28° 68° (ENE) 18:44:58 437.365/2234.400
GOMX 1 03 Mar 18:36:39 18:40:14 19° 66° (ENE) 18:43:52 467.674
PHONESAT 2.4 03 Mar 18:39:50 18:43:21 47° 168° (SSE) 18:46:52 2401.200-2431.200
PCSat 03 Mar 18:43:49 18:45:20 11° 104° (ESE) 18:47:12 145.827
CUBESAT XI-V 03 Mar 19:04:10 19:08:44 48° 287° (WNW) 19:13:13 437.345
DOVE 4 03 Mar 19:06:13 19:10:12 24° 68° (ENE) 19:14:08 437.250
AAUSAT CUBESAT 2 03 Mar 19:08:28 19:11:03 17° 66° (ENE) 19:13:47 437.432
CINEMA 3 03 Mar 19:08:42 19:10:48 13° 64° (ENE) 19:13:06 145.822/145.860
COMPASS 1 03 Mar 19:11:23 19:14:24 20° 67° (ENE) 19:17:33 437.405
AIST 1 03 Mar 19:19:52 19:21:59 13° 275° (W) 19:23:52
PRISM 03 Mar 19:23:18 19:26:55 27° 292° (WNW) 19:30:28 437.425
O/OREOS (USA 219) 03 Mar 19:23:33 19:27:48 36° 254° (WSW) 19:31:58 437.305
STRAND 1 03 Mar 19:34:18 19:39:15 47° 290° (WNW) 19:44:08 437.568
SEEDS 03 Mar 19:39:11 19:43:12 48° 73° (ENE) 19:47:16 437.485
CANX-2 03 Mar 19:43:56 19:48:08 73° 76° (ENE) 19:52:21 2200.000
AIST 2 03 Mar 19:49:35 19:50:44 11° 327° (NNW) 19:51:46 435.215
FUNcube-1 03 Mar 19:55:45 19:57:56 14° 65° (ENE) 20:00:17 145.935
ZACube-1 03 Mar 19:57:12 19:59:34 15° 65° (ENE) 20:02:05 437.345
CUTE 1.7 + AOD 2 03 Mar 20:02:22 20:06:34 77° 257° (WSW) 20:10:49 437.475
UKube-1 03 Mar 20:02:36 20:05:17 17° 64° (ENE) 20:08:06 .
VERMONT LUNAR 03 Mar 20:06:48 20:10:13 51° 190° (S) 20:13:36 437.305
DELFI C3 03 Mar 20:08:57 20:12:21 28° 70° (ENE) 20:15:51 145.870
GOMX 1 03 Mar 20:12:42 20:18:01 60° 260° (W) 20:23:05 467.674
BRITE-PL 03 Mar 20:13:22 20:18:45 43° 263° (W) 20:23:53 437.365/2234.400
UWE-3 03 Mar 20:17:15 20:21:01 29° 70° (ENE) 20:24:46 435.000/436.395/437.385
PHONESAT 2.4 03 Mar 20:18:02 20:21:38 60° 184° (S) 20:25:13 2401.200-2431.200
HO-68 03 Mar 20:19:33 20:26:33 57° 259° (W) 20:33:36 435.675
PCSat 03 Mar 20:22:37 20:28:02 85° 120° (ESE) 20:33:31 145.827
GONETS M04 03 Mar 20:26:18 20:33:21 30° 84° (E) 20:40:39
AAUSAT CUBESAT 2 03 Mar 20:42:27 20:46:24 44° 262° (W) 20:50:23 437.432
Oscar 11 03 Mar 20:42:27 20:46:45 87° 81° (E) 20:51:05 145.826/435.025
CINEMA 3 03 Mar 20:42:49 20:47:35 72° 259° (WSW) 20:52:10 145.822/145.860
DOVE 4 03 Mar 20:42:55 20:47:47 42° 262° (W) 20:52:26 437.250
COMPASS 1 03 Mar 20:46:07 20:49:56 35° 263° (W) 20:53:45 437.405
CUBEBUG 2 03 Mar 20:56:16 21:00:48 90° 43° (NE) 21:05:12 437.445
DX 1 03 Mar 21:08:30 21:12:54 84° 76° (ENE) 21:17:20 434.975-435.025
RS-15 03 Mar 21:11:22 21:18:30 22° 102° (ESE) 21:26:16 29.354- 29.394
50 SAT 03 Mar 21:11:27 21:14:58 31° 71° (ENE) 21:18:31 437.505
SEEDS 03 Mar 21:16:59 21:19:22 14° 270° (W) 21:21:36 437.485
AISAT 03 Mar 21:17:08 21:21:23 42° 71° (ENE) 21:25:39 437.250
CUBEBUG 1 03 Mar 21:18:01 21:21:07 19° 66° (ENE) 21:24:21 437.445
HUMSAT D 03 Mar 21:25:36 21:29:45 67° 75° (ENE) 21:33:53 437.325/437.525
VELOX 1 03 Mar 21:26:00 21:30:20 51° 72° (ENE) 21:34:42 145.980
FUNcube-1 03 Mar 21:29:36 21:33:55 58° 260° (W) 21:38:09 145.935
ZACube-1 03 Mar 21:31:18 21:35:36 55° 261° (W) 21:39:49 437.345
UKube-1 03 Mar 21:36:51 21:41:05 50° 260° (W) 21:45:21 .
DELFI C3 03 Mar 21:44:17 21:47:35 23° 266° (W) 21:50:50 145.870
VERMONT LUNAR 03 Mar 21:45:03 21:47:44 21° 206° (SSW) 21:50:22 437.305
ESTCUBE 1 03 Mar 21:46:00 21:50:12 40° 71° (ENE) 21:54:29 437.505/2401.250
SPROUT 03 Mar 21:48:51 21:49:01 10° 61° (ENE) 21:49:25 437.525
UWE-3 03 Mar 21:53:47 21:57:34 27° 265° (W) 22:01:14 435.000/436.395/437.385
UNISAT 6 03 Mar 21:55:52 21:59:35 28° 95° (E) 22:03:23 437.425
PHONESAT 2.4 03 Mar 21:56:34 21:59:49 30° 201° (SSW) 22:03:02 2401.200-2431.200
QB50P1 03 Mar 22:02:17 22:05:10 18° 92° (E) 22:08:09 145.935-145.965
QB50P2 03 Mar 22:06:21 22:09:29 20° 93° (E) 22:12:43 145.880/145.840
BUGSAT 1 03 Mar 22:07:07 22:09:23 15° 90° (E) 22:11:49 437.445
PCSat 03 Mar 22:08:25 22:12:14 19° 320° (NW) 22:15:56 145.827
DANDE 03 Mar 22:17:05 22:19:44 13° 91° (E) 22:22:28 436.750
DUCHIFAT 1 03 Mar 22:20:03 22:23:40 27° 95° (E) 22:27:18 145.980
TIGRISAT 03 Mar 22:20:05 22:24:15 50° 100° (E) 22:28:29 435.000
GONETS M04 03 Mar 22:21:09 22:29:44 60° 284° (WNW) 22:38:18
ANTELSAT 03 Mar 22:34:15 22:38:34 76° 102° (ESE) 22:42:56 437.575/2403.000
CUSAT 1 03 Mar 22:38:02 22:42:39 24° 95° (E) 22:46:33 437.405
POPSAT HIP 1 03 Mar 22:41:15 22:45:21 48° 99° (E) 22:49:26 437.405
POLYITAN 1 03 Mar 22:41:20 22:45:26 49° 99° (E) 22:49:33 437.675
50 SAT 03 Mar 22:47:03 22:50:04 20° 267° (W) 22:53:00 437.505
CUBEBUG 1 03 Mar 22:52:57 22:57:13 44° 262° (W) 23:01:29 437.445
AISAT 03 Mar 22:54:55 22:58:13 19° 268° (W) 23:01:24 437.250
NANOSAT C BR1 03 Mar 23:03:53 23:08:08 88° 102° (ESE) 23:12:21 145.865
VELOX 1 03 Mar 23:04:25 23:07:16 16° 270° (W) 23:09:57 145.980
HUMSAT D 03 Mar 23:05:13 23:06:05 10° 273° (W) 23:06:40 437.325/437.525
RS-15 03 Mar 23:18:32 23:29:27 87° 122° (ESE) 23:40:35 29.354- 29.394
TISAT 1 03 Mar 23:19:45 23:24:02 85° 76° (ENE) 23:28:21 437.305
SPROUT 03 Mar 23:20:10 23:24:30 87° 257° (WSW) 23:28:52 437.525
ESTCUBE 1 03 Mar 23:23:50 23:27:17 21° 268° (W) 23:30:38 437.505/2401.250
SWISSCUBE 03 Mar 23:31:58 23:35:34 22° 65° (ENE) 23:39:19 437.505
UNISAT 6 03 Mar 23:32:44 23:36:21 26° 291° (WNW) 23:39:56 437.425
QB50P1 03 Mar 23:37:18 23:41:16 39° 289° (WNW) 23:45:11 145.935-145.965
BEESAT 03 Mar 23:40:09 23:43:56 25° 66° (ENE) 23:47:50 436.000
BUGSAT 1 03 Mar 23:41:13 23:45:14 47° 288° (WNW) 23:49:10 437.445
QB50P2 03 Mar 23:41:40 23:45:32 35° 290° (WNW) 23:49:21 145.880/145.840
SO-50 03 Mar 23:46:51 23:47:57 11° 108° (ESE) 23:49:19 436.795
DUCHIFAT 1 03 Mar 23:55:55 23:59:28 26° 292° (WNW) 00:02:56 145.980
DANDE 03 Mar 23:56:15 00:03:01 84° 280° (W) 00:08:02 436.750
TIGRISAT 03 Mar 23:58:02 00:00:41 16° 295° (WNW) 00:03:12 435.000
ITUPSAT 1 04 Mar 00:07:29 00:11:59 43° 71° (ENE) 00:16:34 437.325
ANTELSAT 04 Mar 00:13:27 00:14:52 11° 298° (WNW) 00:16:05 437.575/2403.000
POPSAT HIP 1 04 Mar 00:18:15 00:20:55 16° 295° (WNW) 00:23:25 437.405
POLYITAN 1 04 Mar 00:18:25 00:21:02 16° 295° (WNW) 00:23:30 437.675
BEESAT 3 04 Mar 00:18:51 00:21:58 20° 42° (NE) 00:25:08 437.485
CUSAT 1 04 Mar 00:19:46 00:25:30 41° 283° (WNW) 00:29:51 437.405
GONETS M04 04 Mar 00:25:36 00:29:00 12° 309° (NW) 00:31:48
YUBILEINY 04 Mar 00:29:54 00:30:04 10° 48° (NE) 00:30:59 435.215
BEESAT 2 04 Mar 00:45:30 00:49:11 29° 47° (NE) 00:52:50 435.950
AIST 2 04 Mar 00:50:34 00:53:19 17° 39° (NE) 00:56:09 435.215
Gurwin Techsat 1B 04 Mar 01:00:47 01:01:09 10° 85° (E) 01:01:55 435.225
KKS-1 04 Mar 01:07:25 01:11:28 35° 70° (ENE) 01:15:33 437.445
SWISSCUBE 04 Mar 01:08:40 01:13:13 43° 262° (W) 01:17:47 437.505
STARS 04 Mar 01:11:15 01:14:52 25° 68° (ENE) 01:18:32 437.465
Oscar 19 04 Mar 01:16:03 01:21:07 59° 100° (E) 01:26:11 437.125/150
BEESAT 04 Mar 01:17:11 01:21:38 38° 263° (W) 01:26:05 436.000
ITAMSAT 1 04 Mar 01:18:06 01:21:57 21° 91° (E) 01:25:55 435.822/435.867
SO-50 04 Mar 01:23:13 01:27:49 87° 304° (WNW) 01:32:37 436.795
RS-15 04 Mar 01:33:37 01:43:24 35° 330° (NNW) 01:53:17 29.354- 29.394
DANDE 04 Mar 01:44:43 01:46:42 11° 293° (WNW) 01:48:12 436.750
ITUPSAT 1 04 Mar 01:46:28 01:50:08 21° 268° (W) 01:53:42 437.325
BEESAT 3 04 Mar 01:56:20 02:00:20 48° 242° (WSW) 02:04:16 437.485
YUBILEINY 04 Mar 02:21:11 02:29:45 52° 74° (ENE) 02:38:19 435.215
BEESAT 2 04 Mar 02:23:41 02:27:21 30° 245° (WSW) 02:30:54 435.950
JAS-2 04 Mar 02:26:22 02:27:30 11° 80° (E) 02:29:20 435.910
AIST 2 04 Mar 02:28:11 02:32:27 71° 239° (WSW) 02:36:38 435.215
AO-7 04 Mar 02:28:18 02:32:40 16° 86° (E) 02:37:35 29.400- 29.500
MOZHAYETS 4 04 Mar 02:30:25 02:32:40 14° 63° (ENE) 02:35:08
Gurwin Techsat 1B 04 Mar 02:36:43 02:42:05 84° 103° (ESE) 02:47:24 435.225
KKS-1 04 Mar 02:44:36 02:48:13 23° 266° (W) 02:51:45 437.445
STARS 04 Mar 02:47:15 02:51:14 32° 264° (W) 02:55:11 437.465
Oscar 19 04 Mar 02:56:31 03:00:04 19° 297° (WNW) 03:03:29 437.125/150
ITAMSAT 1 04 Mar 02:56:44 03:01:48 50° 289° (WNW) 03:06:47 435.822/435.867
HORYU 2 04 Mar 03:01:20 03:05:30 39° 98° (E) 03:09:43 437.375
M-CUBED/EXP-1 PRIME 04 Mar 03:03:58 03:07:14 58° 69° (ENE) 03:10:39 437.505
AUBIESAT-1 04 Mar 03:04:46 03:08:00 51° 68° (ENE) 03:11:24 437.475
SO-50 04 Mar 03:06:08 03:09:09 16° 325° (NW) 03:12:07 436.795
PCSat 04 Mar 03:27:40 03:30:55 16° 37° (NE) 03:34:18 145.827
RS-15 04 Mar 03:51:57 04:00:18 23° 4° (N) 04:08:56 29.354- 29.394
MOZHAYETS 4 04 Mar 04:04:54 04:09:25 67° 259° (W) 04:14:01
JAS-2 04 Mar 04:06:39 04:14:03 61° 100° (E) 04:21:50 435.910
YUBILEINY 04 Mar 04:18:29 04:26:21 36° 274° (W) 04:34:01 435.215
Gurwin Techsat 1B 04 Mar 04:18:33 04:21:26 14° 300° (WNW) 04:24:05 435.225
AO-7 04 Mar 04:18:35 04:26:57 81° 107° (ESE) 04:35:14 29.400- 29.500
CUBESAT XI-V 04 Mar 04:32:09 04:35:32 21° 66° (ENE) 04:39:04 437.345
HORYU 2 04 Mar 04:38:34 04:41:58 21° 294° (WNW) 04:45:15 437.375
PRISM 04 Mar 04:39:25 04:42:39 23° 67° (ENE) 04:46:00 437.425
Cubesat XI-IV 04 Mar 04:56:54 04:59:35 14° 87° (E) 05:02:32 437.490
CUTE-I 04 Mar 05:04:57 05:08:15 17° 89° (E) 05:11:46 437.470
PCSat 04 Mar 05:09:51 05:15:19 79° 60° (ENE) 05:20:44 145.827
STRAND 1 04 Mar 05:12:17 05:16:52 34° 68° (ENE) 05:21:33 437.568
